CEB651 RPVA-RPLL

Flight info

Callsign CEB651
Flight time 1h 16m
Altitude 32000
Route MALAG5R MALAG W9 AKDAP AKDAP3R
Aircraft A21N/M-SDE3FGHIRWY/LB1

Departure

Time 2026-05-04 16:26
Airport Daniel Z. Romualdez Airport (RPVA)

Arrival

Time 2026-05-04 17:43
Airport Ninoy Aquino International Airport (RPLL)
Time Latitude Longitude Altitude Speed Heading
2026-05-04 15:47 11.22736 125.02657 22 ft 0 kts 317°
2026-05-04 16:20 11.22740 125.02654 21 ft 1 kts 342°
2026-05-04 16:21 11.22696 125.02691 21 ft 7 kts 165°
2026-05-04 16:22 11.22579 125.02698 20 ft 8 kts 137°
2026-05-04 16:22 11.22376 125.02749 19 ft 15 kts 182°
2026-05-04 16:23 11.21993 125.02723 24 ft 18 kts 184°
2026-05-04 16:24 11.21820 125.02715 24 ft 2 kts 358°
2026-05-04 16:25 11.21828 125.02715 24 ft 0 kts
2026-05-04 16:26 11.23635 125.02828 204 ft 172 kts
2026-05-04 16:26 11.27105 125.03056 2336 ft 164 kts
2026-05-04 16:27 11.29400 125.03219 3195 ft 166 kts
2026-05-04 16:28 11.33291 125.03227 3996 ft 214 kts 338°
2026-05-04 16:28 11.37002 124.99712 4835 ft 270 kts 319°
2026-05-04 16:29 11.42581 124.94275 7356 ft 284 kts 318°
2026-05-04 16:30 11.46965 124.90011 9116 ft 295 kts 318°
2026-05-04 16:31 11.49956 124.87101 10205 ft 303 kts 317°
2026-05-04 16:31 11.54817 124.82373 11119 ft 338 kts 318°
2026-05-04 16:32 11.60278 124.77699 12548 ft 347 kts 328°
2026-05-04 16:33 11.64348 124.74959 13455 ft 353 kts 329°
2026-05-04 16:33 11.68478 124.72193 14346 ft 358 kts 329°
2026-05-04 16:34 11.72683 124.69367 15233 ft 363 kts 329°
2026-05-04 16:34 11.74797 124.67945 15657 ft 365 kts 329°
2026-05-04 16:35 11.81224 124.63615 16883 ft 371 kts 328°
2026-05-04 16:35 11.87724 124.59232 18055 ft 377 kts 328°
2026-05-04 16:36 11.89936 124.57740 18443 ft 379 kts 328°
2026-05-04 16:36 11.94339 124.54769 19182 ft 382 kts 328°
2026-05-04 16:37 11.98822 124.51743 19901 ft 386 kts 328°
2026-05-04 16:37 12.01052 124.50237 20259 ft 387 kts 328°
2026-05-04 16:37 12.05575 124.47181 20935 ft 391 kts 328°
2026-05-04 16:38 12.10145 124.44092 21587 ft 395 kts 328°
2026-05-04 16:39 12.17076 124.39404 22550 ft 399 kts 328°
2026-05-04 16:39 12.21734 124.36251 23184 ft 402 kts 328°
2026-05-04 16:40 12.26410 124.33083 23763 ft 406 kts 327°
2026-05-04 16:40 12.31146 124.29873 24333 ft 409 kts 327°
2026-05-04 16:41 12.35937 124.26626 24879 ft 413 kts 327°
2026-05-04 16:41 12.42901 124.21354 25668 ft 419 kts 323°
2026-05-04 16:42 12.49913 124.15872 26440 ft 423 kts 323°
2026-05-04 16:43 12.54587 124.12219 26906 ft 427 kts 323°
2026-05-04 16:43 12.59356 124.08491 27378 ft 430 kts 323°
2026-05-04 16:43 12.61741 124.06627 27621 ft 432 kts 323°
2026-05-04 16:44 12.71338 123.99120 28570 ft 436 kts 323°
2026-05-04 16:45 12.76190 123.95320 29026 ft 440 kts 323°
2026-05-04 16:46 12.83521 123.89578 29737 ft 444 kts 322°
2026-05-04 16:46 12.88429 123.85730 30204 ft 446 kts 322°
2026-05-04 16:47 12.93388 123.81840 30682 ft 448 kts 322°
2026-05-04 16:47 12.98323 123.77965 31174 ft 450 kts 322°
2026-05-04 16:48 13.05803 123.72083 31835 ft 453 kts 322°
2026-05-04 16:48 13.08307 123.70114 31864 ft 453 kts 322°
2026-05-04 16:49 13.18093 123.61906 31872 ft 452 kts 319°
2026-05-04 16:50 13.27735 123.53526 31874 ft 454 kts 319°
2026-05-04 16:51 13.34958 123.47247 31889 ft 454 kts 319°
2026-05-04 16:52 13.44597 123.38854 31898 ft 453 kts 319°
2026-05-04 16:53 13.51801 123.32544 31896 ft 453 kts 317°
2026-05-04 16:53 13.58169 123.25365 31880 ft 452 kts 305°
2026-05-04 16:54 13.59948 123.22725 31876 ft 451 kts 301°
2026-05-04 16:55 13.68481 123.05552 31880 ft 450 kts 295°
2026-05-04 16:56 13.75364 122.91094 31881 ft 451 kts 295°
2026-05-04 16:57 13.76747 122.88188 31724 ft 452 kts 295°
2026-05-04 16:57 13.79490 122.82413 30678 ft 446 kts 295°
2026-05-04 16:58 13.83494 122.73993 29335 ft 434 kts 296°
2026-05-04 16:58 13.84819 122.71213 28851 ft 430 kts 296°
2026-05-04 16:59 13.87409 122.65756 27972 ft 423 kts 296°
2026-05-04 17:00 13.92507 122.55018 26130 ft 412 kts 296°
2026-05-04 17:00 13.96232 122.47153 24754 ft 406 kts 296°
2026-05-04 17:01 13.98686 122.41966 23847 ft 401 kts 296°
2026-05-04 17:01 14.01107 122.36847 22948 ft 397 kts 296°
2026-05-04 17:02 14.03512 122.31755 22053 ft 393 kts 296°
2026-05-04 17:02 14.05890 122.26720 21164 ft 390 kts 296°
2026-05-04 17:03 14.07077 122.24204 20709 ft 389 kts 296°
2026-05-04 17:03 14.08257 122.21703 20258 ft 388 kts 296°
2026-05-04 17:03 14.10597 122.16740 19347 ft 385 kts 296°
2026-05-04 17:04 14.12909 122.11832 18743 ft 376 kts 296°
2026-05-04 17:04 14.15181 122.07004 17783 ft 375 kts 297°
2026-05-04 17:05 14.17449 122.02186 16904 ft 371 kts 296°
2026-05-04 17:05 14.19671 121.97456 16204 ft 360 kts 297°
2026-05-04 17:06 14.21793 121.92941 15857 ft 340 kts 297°
2026-05-04 17:06 14.22779 121.90775 15615 ft 333 kts 295°
2026-05-04 17:07 14.24639 121.86428 14859 ft 329 kts 295°
2026-05-04 17:07 14.25241 121.85012 14602 ft 328 kts 295°
2026-05-04 17:07 14.26459 121.82155 14095 ft 325 kts 295°
2026-05-04 17:07 14.27370 121.80023 13701 ft 324 kts 295°
2026-05-04 17:08 14.28278 121.77901 13316 ft 322 kts 295°
2026-05-04 17:08 14.30070 121.73718 12603 ft 317 kts 295°
2026-05-04 17:08 14.30966 121.71625 12244 ft 316 kts 295°
2026-05-04 17:09 14.31841 121.69577 11846 ft 314 kts 295°
2026-05-04 17:09 14.32728 121.67505 11455 ft 313 kts 296°
2026-05-04 17:09 14.33597 121.65474 11098 ft 310 kts 296°
2026-05-04 17:10 14.35335 121.61410 10384 ft 307 kts 296°
2026-05-04 17:10 14.37891 121.55430 9293 ft 302 kts 297°
2026-05-04 17:11 14.38733 121.53461 8952 ft 300 kts 296°
2026-05-04 17:11 14.39573 121.51497 8585 ft 299 kts 296°
2026-05-04 17:11 14.41247 121.47577 7866 ft 295 kts 296°
2026-05-04 17:12 14.42071 121.45647 7506 ft 294 kts 296°
2026-05-04 17:12 14.43714 121.41796 6936 ft 290 kts 296°
2026-05-04 17:13 14.46167 121.36039 6898 ft 292 kts 296°
2026-05-04 17:14 14.48621 121.30275 6924 ft 292 kts 296°
2026-05-04 17:14 14.49173 121.28309 6886 ft 282 kts 272°
2026-05-04 17:14 14.47788 121.24683 6938 ft 276 kts 239°
2026-05-04 17:15 14.46782 121.22975 6936 ft 276 kts 239°
2026-05-04 17:15 14.44819 121.19563 6955 ft 276 kts 240°
2026-05-04 17:16 14.42887 121.16123 6947 ft 281 kts 240°
2026-05-04 17:16 14.39982 121.10950 6949 ft 276 kts 240°
2026-05-04 17:17 14.39023 121.09247 6949 ft 275 kts 240°
2026-05-04 17:17 14.36178 121.04173 6104 ft 271 kts 240°
2026-05-04 17:18 14.35245 121.02500 5807 ft 269 kts 240°
2026-05-04 17:18 14.33387 120.99159 5181 ft 267 kts 240°
2026-05-04 17:19 14.31564 120.95851 4977 ft 267 kts 240°
2026-05-04 17:19 14.29734 120.92507 4978 ft 268 kts 240°
2026-05-04 17:20 14.27917 120.89174 4968 ft 267 kts 240°
2026-05-04 17:20 14.26368 120.85711 4936 ft 265 kts 265°
2026-05-04 17:20 14.26571 120.83858 4665 ft 259 kts 294°
2026-05-04 17:21 14.28938 120.81226 4047 ft 247 kts 326°
2026-05-04 17:22 14.33391 120.78238 3255 ft 226 kts 356°
2026-05-04 17:22 14.34904 120.78394 3000 ft 216 kts 22°
2026-05-04 17:23 14.38820 120.80614 2952 ft 214 kts 52°
2026-05-04 17:23 14.39691 120.81858 2957 ft 213 kts 59°
2026-05-04 17:23 14.41108 120.84352 3017 ft 191 kts 62°
2026-05-04 17:24 14.41734 120.85493 2975 ft 172 kts 62°
2026-05-04 17:24 14.43353 120.88424 2432 ft 149 kts 62°
2026-05-04 17:25 14.43862 120.89344 2282 ft 148 kts 62°
2026-05-04 17:25 14.44889 120.91193 1919 ft 146 kts 62°
2026-05-04 17:26 14.45896 120.93006 1546 ft 145 kts 63°
2026-05-04 17:26 14.47393 120.95702 1002 ft 144 kts 62°
2026-05-04 17:27 14.48384 120.97486 636 ft 143 kts 64°
2026-05-04 17:27 14.49371 120.99271 290 ft 142 kts 62°
2026-05-04 17:28 14.50346 121.01022 119 ft 135 kts 63°
2026-05-04 17:29 14.51750 121.03642 1700 ft 140 kts 63°
2026-05-04 17:29 14.53159 121.06200 2796 ft 138 kts 62°
2026-05-04 17:30 14.52295 121.08862 3498 ft 179 kts 144°
2026-05-04 17:31 14.49910 121.10192 4003 ft 209 kts 148°
2026-05-04 17:31 14.45645 121.12605 4940 ft 253 kts 147°
2026-05-04 17:32 14.42285 121.13371 5735 ft 257 kts 198°
2026-05-04 17:33 14.39233 121.08987 4964 ft 262 kts 243°
2026-05-04 17:33 14.38379 121.07308 4965 ft 264 kts 241°
2026-05-04 17:34 14.35621 121.02399 4972 ft 265 kts 239°
2026-05-04 17:34 14.34676 121.00769 4977 ft 264 kts 239°
2026-05-04 17:35 14.31839 120.95889 4973 ft 263 kts 239°
2026-05-04 17:35 14.29965 120.92669 4985 ft 263 kts 239°
2026-05-04 17:35 14.29038 120.91049 4978 ft 264 kts 243°
2026-05-04 17:36 14.28621 120.89234 4944 ft 255 kts 278°
2026-05-04 17:36 14.29240 120.87628 4950 ft 240 kts 313°
2026-05-04 17:36 14.30547 120.86574 4976 ft 235 kts 335°
2026-05-04 17:36 14.31995 120.85805 4972 ft 234 kts 336°
2026-05-04 17:37 14.33460 120.85017 4741 ft 236 kts 335°
2026-05-04 17:37 14.34900 120.84213 4417 ft 236 kts 334°
2026-05-04 17:37 14.36345 120.83383 4103 ft 236 kts 334°
2026-05-04 17:37 14.37774 120.82601 3784 ft 233 kts 343°
2026-05-04 17:38 14.39315 120.82522 3508 ft 215 kts 20°
2026-05-04 17:38 14.40512 120.83324 3341 ft 197 kts 50°
2026-05-04 17:38 14.41215 120.84469 3194 ft 183 kts 62°
2026-05-04 17:38 14.41812 120.85582 3052 ft 169 kts 62°
2026-05-04 17:39 14.42900 120.87595 2798 ft 158 kts 63°
2026-05-04 17:39 14.43444 120.88586 2506 ft 158 kts 62°
2026-05-04 17:39 14.43980 120.89562 2278 ft 155 kts 62°
2026-05-04 17:40 14.44517 120.90532 2071 ft 156 kts 63°
2026-05-04 17:40 14.45055 120.91502 1885 ft 154 kts 63°
2026-05-04 17:40 14.45584 120.92457 1663 ft 153 kts 62°
2026-05-04 17:40 14.46113 120.93409 1476 ft 152 kts 62°
2026-05-04 17:41 14.46640 120.94356 1291 ft 152 kts 62°
2026-05-04 17:41 14.47171 120.95299 1095 ft 151 kts 63°
2026-05-04 17:41 14.47690 120.96233 900 ft 151 kts 63°
2026-05-04 17:41 14.48218 120.97180 697 ft 151 kts 64°
2026-05-04 17:42 14.48736 120.98109 525 ft 150 kts 63°
2026-05-04 17:42 14.49253 120.99052 334 ft 149 kts 62°
2026-05-04 17:42 14.49768 120.99980 134 ft 150 kts 63°
2026-05-04 17:42 14.50273 121.00888 87 ft 137 kts 60°
2026-05-04 17:43 14.50673 121.01613 81 ft 90 kts 60°
2026-05-04 17:43 14.50903 121.02023 81 ft 42 kts 59°
2026-05-04 17:43 14.51024 121.02197 81 ft 26 kts 45°
2026-05-04 17:43 14.51135 121.02298 81 ft 14 kts 34°
2026-05-04 17:44 14.51191 121.02274 81 ft 8 kts 278°
2026-05-04 17:44 14.51165 121.02210 81 ft 10 kts 240°
2026-05-04 17:44 14.51128 121.02144 81 ft 11 kts 240°
2026-05-04 17:44 14.51088 121.02074 81 ft 11 kts 239°
2026-05-04 17:45 14.51059 121.02006 81 ft 8 kts 283°
2026-05-04 17:45 14.51102 121.01955 81 ft 10 kts 314°
2026-05-04 17:45 14.51162 121.01893 81 ft 13 kts 314°
2026-05-04 17:45 14.51232 121.01820 81 ft 14 kts 315°
2026-05-04 17:46 14.51305 121.01746 81 ft 14 kts 315°
2026-05-04 17:46 14.51377 121.01671 81 ft 15 kts 315°
2026-05-04 17:46 14.51452 121.01595 81 ft 15 kts 315°
2026-05-04 17:46 14.51528 121.01516 81 ft 15 kts 315°
2026-05-04 17:47 14.51604 121.01437 81 ft 15 kts 315°
2026-05-04 17:47 14.51680 121.01359 81 ft 15 kts 315°
2026-05-04 17:47 14.51757 121.01279 81 ft 15 kts 314°
2026-05-04 17:47 14.51830 121.01204 81 ft 14 kts 315°
2026-05-04 17:48 14.51900 121.01132 81 ft 14 kts 315°
2026-05-04 17:48 14.51969 121.01060 81 ft 14 kts 314°
2026-05-04 17:48 14.52037 121.00988 81 ft 13 kts 314°
2026-05-04 17:48 14.52105 121.00919 81 ft 13 kts 314°
2026-05-04 17:49 14.52174 121.00848 81 ft 13 kts 315°
2026-05-04 17:49 14.52242 121.00778 81 ft 13 kts 315°
2026-05-04 17:49 14.52303 121.00714 81 ft 10 kts 315°
2026-05-04 17:49 14.52343 121.00698 81 ft 6 kts 33°
2026-05-04 17:50 14.52368 121.00721 81 ft 3 kts 43°
2026-05-04 17:50 14.52381 121.00734 81 ft 1 kts 44°
2026-05-04 17:50 14.52383 121.00736 81 ft 0 kts 44°